Clarksville, TX

9:49 AM CDT on May 26, 2017 (GMT -0500)
Clarksville

Weather History for KLBR - March, 2013

Change the Weather History Date:

Wednesday, March 20, 2013

  Actual Average (KPRX) Record (KPRX)
Temperature  
Mean Temperature 53 °F -  
Max Temperature 64 °F 63 °F 84 °F (2017)
Min Temperature 42 °F 44 °F 35 °F (1997)
Degree Days  
Heating Degree Days 12    
Growing Degree Days 3 (Base 50)    
Moisture  
Dew Point 27 °F    
Average Humidity 37    
Maximum Humidity 57    
Minimum Humidity 18    
Precipitation  
Precipitation 0.00 in - - ()
Sea Level Pressure  
Sea Level Pressure 30.20 in    
Wind  
Wind Speed 5 mph (North)    
Max Wind Speed 12 mph    
Max Gust Speed 18 mph    
Visibility 10 miles    
Events      
Averages and records for this station are not official NWS values.
T = Trace of Precipitation, MM = Missing Value Source: NWS Daily Summary

Daily Weather History Graph

Daily Weather History Graph

Search for Another Location

Airport or City:

Trip Planner

Search our weather history database for the weather conditions in past years. The results will help you decide how hot, cold, wet, or windy it might be!

Date:

Astronomy

Mar. 20, 2013 Rise Set
Actual Time 7:23 AM CDT 7:32 PM CDT
Civil Twilight 6:58 AM CDT 7:56 PM CDT
Nautical Twilight 6:29 AM CDT 8:25 PM CDT
Astronomical Twilight 6:00 AM CDT 8:55 PM CDT
Moon 1:23 PM CDT (3/20) 2:48 AM CDT (3/20)
Length of Visible Light 12h 58m
Length of Day
12h 08m
First Quarter, 59% of the Moon is Illuminated
Mar 20
First Quarter
Mar 27
Full
Apr 2
Last Quarter
Apr 10
New
Apr 18
First Quarter

Hourly Weather History & Observations

Time (CDT) Temp. Windchill Dew Point Humidity Pressure Visibility Wind Dir Wind Speed Gust Speed Precip Events Conditions
12:15 AM 55.4 °F - 32.0 °F 41% 30.18 in 10.0 mi ENE 5.8 mph - N/A   Clear
12:35 AM 53.6 °F - 32.0 °F 44% 30.18 in 10.0 mi ENE 5.8 mph - N/A   Clear
12:55 AM 53.6 °F - 32.0 °F 44% 30.17 in 10.0 mi ENE 5.8 mph - N/A   Clear
1:15 AM 53.6 °F - 32.0 °F 44% 30.16 in 10.0 mi NE 4.6 mph - N/A   Clear
1:35 AM 51.8 °F - 32.0 °F 47% 30.17 in 10.0 mi NNE 6.9 mph - N/A   Clear
1:55 AM 51.8 °F - 32.0 °F 47% 30.19 in 10.0 mi NNE 6.9 mph - N/A   Clear
2:15 AM 51.8 °F - 32.0 °F 47% 30.20 in 10.0 mi NNE 6.9 mph - N/A   Clear
2:35 AM 50.0 °F - 32.0 °F 50% 30.21 in 10.0 mi NNE 6.9 mph - N/A   Clear
2:55 AM 50.0 °F - 32.0 °F 50% 30.21 in 10.0 mi NE 4.6 mph - N/A   Clear
3:15 AM 50.0 °F - 30.2 °F 47% 30.21 in 10.0 mi NE 4.6 mph - N/A   Clear
3:35 AM 48.2 °F - 30.2 °F 50% 30.20 in 10.0 mi NNE 4.6 mph - N/A   Clear
3:55 AM 46.4 °F 44.3 °F 30.2 °F 53% 30.19 in 10.0 mi NNE 4.6 mph - N/A   Clear
4:15 AM 46.4 °F 45.2 °F 30.2 °F 53% 30.19 in 10.0 mi NNE 3.5 mph - N/A   Clear
4:35 AM 46.4 °F 44.3 °F 30.2 °F 53% 30.19 in 10.0 mi NE 4.6 mph - N/A   Clear
4:55 AM 46.4 °F 44.3 °F 28.4 °F 50% 30.21 in 10.0 mi NE 4.6 mph - N/A   Clear
5:15 AM 46.4 °F 44.3 °F 28.4 °F 50% 30.21 in 10.0 mi NE 4.6 mph - N/A   Clear
5:35 AM 44.6 °F 42.2 °F 28.4 °F 53% 30.21 in 10.0 mi NE 4.6 mph - N/A   Clear
5:55 AM 44.6 °F 43.1 °F 28.4 °F 53% 30.22 in 10.0 mi NNE 3.5 mph - N/A   Clear
6:15 AM 44.6 °F 43.1 °F 28.4 °F 53% 30.23 in 10.0 mi NNE 3.5 mph - N/A   Clear
6:35 AM 44.6 °F 43.1 °F 28.4 °F 53% 30.24 in 10.0 mi North 3.5 mph - N/A   Clear
6:55 AM 42.8 °F 40.1 °F 28.4 °F 57% 30.25 in 10.0 mi North 4.6 mph - N/A   Clear
7:15 AM 42.8 °F 40.1 °F 28.4 °F 57% 30.26 in 10.0 mi North 4.6 mph - N/A   Clear
7:35 AM 42.8 °F 41.1 °F 28.4 °F 57% 30.26 in 10.0 mi North 3.5 mph - N/A   Clear
7:55 AM 42.8 °F 41.1 °F 28.4 °F 57% 30.27 in 10.0 mi North 3.5 mph - N/A   Clear
8:15 AM 42.8 °F 41.1 °F 28.4 °F 57% 30.29 in 10.0 mi North 3.5 mph - N/A   Clear
8:35 AM 44.6 °F - 28.4 °F 53% 30.29 in 10.0 mi Calm Calm - N/A   Clear
8:55 AM 46.4 °F 45.2 °F 26.6 °F 46% 30.30 in 10.0 mi NNE 3.5 mph - N/A   Clear
9:15 AM 50.0 °F - 26.6 °F 40% 30.30 in 10.0 mi NNE 5.8 mph - N/A   Clear
9:35 AM 51.8 °F - 26.6 °F 38% 30.31 in 10.0 mi NE 4.6 mph - N/A   Clear
9:55 AM 51.8 °F - 26.6 °F 38% 30.32 in 10.0 mi ENE 5.8 mph - N/A   Clear
10:15 AM 53.6 °F - 24.8 °F 33% 30.32 in 10.0 mi North 5.8 mph - N/A   Clear
10:35 AM 53.6 °F - 23.0 °F 30% 30.32 in 10.0 mi ENE 5.8 mph - N/A   Clear
10:55 AM 55.4 °F - 23.0 °F 29% 30.32 in 10.0 mi ENE 3.5 mph - N/A   Clear
11:15 AM 55.4 °F - 23.0 °F 29% 30.32 in 10.0 mi NNE 3.5 mph - N/A   Clear
11:35 AM 59.0 °F - 26.6 °F 29% 30.31 in 10.0 mi NNE 4.6 mph - N/A   Clear
11:55 AM 59.0 °F - 26.6 °F 29% 30.30 in 10.0 mi North 8.1 mph - N/A   Clear
12:15 PM 59.0 °F - 24.8 °F 27% 30.29 in 10.0 mi NE 4.6 mph - N/A   Clear
12:35 PM 60.8 °F - 26.6 °F 27% 30.29 in 10.0 mi NNW 8.1 mph - N/A   Clear
12:55 PM 62.6 °F - 26.6 °F 26% 30.28 in 10.0 mi NNW 6.9 mph - N/A   Clear
1:15 PM 60.8 °F - 23.0 °F 23% 30.27 in 10.0 mi NNW 6.9 mph - N/A   Clear
1:35 PM 62.6 °F - 23.0 °F 22% 30.26 in 10.0 mi NNW 6.9 mph - N/A   Clear
1:55 PM 62.6 °F - 23.0 °F 22% 30.25 in 10.0 mi North 9.2 mph 18.4 mph N/A   Clear
2:15 PM 62.6 °F - 23.0 °F 22% 30.24 in 10.0 mi North 5.8 mph 16.1 mph N/A   Clear
2:35 PM 64.4 °F - 26.6 °F 24% 30.22 in 10.0 mi North 5.8 mph - N/A   Clear
2:55 PM 64.4 °F - 24.8 °F 22% 30.21 in 10.0 mi NNW 9.2 mph - N/A   Clear
3:15 PM 62.6 °F - 24.8 °F 24% 30.19 in 10.0 mi NE 4.6 mph - N/A   Clear
3:35 PM 64.4 °F - 24.8 °F 22% 30.18 in 10.0 mi NNW 5.8 mph - N/A   Clear
3:55 PM 64.4 °F - 23.0 °F 21% 30.17 in 10.0 mi NNE 3.5 mph 16.1 mph N/A   Clear
4:15 PM 64.4 °F - 21.2 °F 19% 30.16 in 10.0 mi NW 5.8 mph - N/A   Clear
4:35 PM 64.4 °F - 19.4 °F 18% 30.15 in 10.0 mi NW 5.8 mph - N/A   Clear
4:55 PM 64.4 °F - 21.2 °F 19% 30.14 in 10.0 mi NNW 9.2 mph - N/A   Clear
5:15 PM 64.4 °F - 21.2 °F 19% 30.13 in 10.0 mi NW 9.2 mph - N/A   Clear
5:35 PM 64.4 °F - 19.4 °F 18% 30.14 in 7.0 mi NW 6.9 mph - N/A   Clear
5:55 PM 64.4 °F - 19.4 °F 18% 30.13 in 10.0 mi NW 8.1 mph - N/A   Clear
6:15 PM 62.6 °F - 17.6 °F 18% 30.13 in 10.0 mi NW 11.5 mph - N/A   Clear
6:35 PM 62.6 °F - 19.4 °F 19% 30.12 in 10.0 mi NNW 4.6 mph - N/A   Clear
6:55 PM 60.8 °F - 21.2 °F 22% 30.12 in 10.0 mi North 4.6 mph - N/A   Clear
7:15 PM 60.8 °F - 21.2 °F 22% 30.12 in 10.0 mi Calm Calm - N/A   Clear
7:35 PM 59.0 °F - 23.0 °F 25% 30.12 in 10.0 mi Calm Calm - N/A   Clear
7:55 PM 57.2 °F - 23.0 °F 27% 30.12 in 10.0 mi NNW 3.5 mph - N/A   Clear
8:15 PM 55.4 °F - 24.8 °F 31% 30.11 in 10.0 mi North 3.5 mph - N/A   Clear
8:35 PM 53.6 °F - 24.8 °F 33% 30.11 in 10.0 mi NNW 3.5 mph - N/A   Clear
8:55 PM 53.6 °F - 24.8 °F 33% 30.11 in 10.0 mi NNW 3.5 mph - N/A   Clear
9:15 PM 51.8 °F - 26.6 °F 38% 30.11 in 10.0 mi North 3.5 mph - N/A   Clear
9:35 PM 51.8 °F - 26.6 °F 38% 30.11 in 10.0 mi North 3.5 mph - N/A   Clear
9:55 PM 51.8 °F - 30.2 °F 44% 30.10 in 10.0 mi North 3.5 mph - N/A   Clear
10:15 PM 51.8 °F - 30.2 °F 44% 30.10 in 10.0 mi North 4.6 mph - N/A   Clear
10:35 PM 51.8 °F - 32.0 °F 47% 30.10 in 10.0 mi North 4.6 mph - N/A   Clear
10:55 PM 51.8 °F - 32.0 °F 47% 30.09 in 10.0 mi NNE 4.6 mph - N/A   Clear
11:15 PM 50.0 °F - 32.0 °F 50% 30.09 in 10.0 mi NNE 4.6 mph - N/A   Clear
11:35 PM 50.0 °F - 30.2 °F 47% 30.09 in 10.0 mi NNE 4.6 mph - N/A   Clear
11:55 PM 50.0 °F - 30.2 °F 47% 30.08 in 10.0 mi NE 3.5 mph - N/A   Clear